Home > Weather > Rotterdam > Past weeks

Flag for Netherlands Weather for the Past 2 Weeks in Rotterdam, Netherlands

Now
48 °F

Overcast.


Feels Like: 42 °F
Forecast: 44 / 49 °F
Wind: 18 mph from South

Location: Rotterdam Zestienhoven Airport

Current Time: Feb 6, 2016 at 11:09:33 AM

Latest Report: Feb 6, 2016 at 10:25 AM


Visibility: N/A

Pressure: 29.77 "Hg

Humidity: 87%

Dew point: 45 °F

Location of RotterdamLocation

Historic Weather in Rotterdam — Graph

°F

Rotterdam Temperature Yesterday

Maximum temperature yesterday: 52 °F (at 1:55 PM)
Minimum temperature yesterday: 36 °F (at 12:25 AM)
Average temperature yesterday: 48 °F

High & Low Weather Summary for the Past Weeks

 TemperatureHumidityPressure
High57 °F (Jan 25, 2:25 PM)100% (Jan 22, 7:25 PM)30.48 "Hg (Jan 22, 7:25 PM)
Low32 °F (Jan 22, 9:25 AM)57% (Jan 30, 9:55 PM)29.65 "Hg (Jan 31, 4:55 PM)
Average47 °F84%30.06 "Hg
* Reported Jan 22 9:25 AM — Feb 6 9:55 AM, Rotterdam, Weather by CustomWeather, © 2016

Note: Actual official high and low records may vary slightly from our data, if they occured in-between our weather recording intervals... More about our weather records

Advertising

Rotterdam Weather History for the Previous 24 Hours

 ConditionsComfort  
Time TempWeatherWind HumidityBarometerVisibility
9:55 AM
Sat, Feb 6
48 °FMore clouds than sun.17 mph82%29.77 "HgN/A
9:25 AM48 °FOvercast.17 mph82%29.80 "HgN/A
8:55 AM48 °FOvercast.15 mph82%29.80 "HgN/A
8:25 AM46 °FCool.15 mph87%29.80 "HgN/A
7:55 AM48 °FPassing clouds.15 mph87%29.80 "HgN/A
7:25 AM48 °FPassing clouds.13 mph87%29.80 "HgN/A
6:55 AM48 °FOvercast.14 mph87%29.80 "HgN/A
6:25 AM48 °FPassing clouds.13 mph87%29.83 "HgN/A
5:55 AM48 °FMostly cloudy.13 mph87%29.83 "HgN/A
4:55 AM48 °FOvercast.10 mph94%29.86 "HgN/A
4:25 AM48 °FPartly cloudy.10 mph94%29.86 "HgN/A
3:55 AM48 °FOvercast.14 mph94%29.89 "Hg6 mi
2:55 AM48 °FOvercast.15 mph87%29.89 "HgN/A
2:25 AM48 °FOvercast.15 mph87%29.92 "HgN/A
1:25 AM48 °FPassing clouds.15 mph87%29.95 "HgN/A
12:55 AM48 °FPartly cloudy.14 mph87%29.95 "HgN/A
12:25 AM48 °FOvercast.15 mph87%29.95 "HgN/A
11:55 PM
Fri, Feb 5
50 °FOvercast.16 mph82%29.98 "HgN/A
11:25 PM48 °FOvercast.16 mph94%29.98 "HgN/A
10:55 PM48 °FOvercast.14 mph94%29.98 "HgN/A
10:25 PM48 °FMostly cloudy.12 mph94%30.01 "HgN/A
9:55 PM48 °FOvercast.12 mph87%30.01 "HgN/A
9:25 PM50 °FMostly cloudy.15 mph82%30.01 "HgN/A
8:55 PM50 °FPartly cloudy.17 mph82%30.04 "HgN/A
8:25 PM50 °FMostly cloudy.20 mph82%30.04 "HgN/A
7:55 PM50 °FOvercast.16 mph82%30.04 "HgN/A
7:25 PM50 °FMostly cloudy.15 mph82%30.04 "HgN/A
6:55 PM50 °FPartly cloudy.15 mph88%30.07 "HgN/A
6:25 PM50 °FPartly cloudy.14 mph88%30.07 "HgN/A
5:55 PM50 °FPartly cloudy.13 mph88%30.07 "HgN/A
5:25 PM50 °FPartly sunny.15 mph88%30.09 "HgN/A
4:55 PM48 °FBroken clouds.10 mph94%30.09 "HgN/A
4:25 PM48 °FOvercast.14 mph94%30.09 "HgN/A
3:55 PM50 °FMostly cloudy.17 mph88%30.09 "HgN/A
3:25 PM52 °FBroken clouds.18 mph82%30.09 "HgN/A
2:55 PM52 °FOvercast.17 mph82%30.09 "HgN/A
2:25 PM52 °FMostly cloudy.20 mph82%30.12 "HgN/A
1:55 PM52 °FOvercast.23 mph82%30.12 "HgN/A
1:25 PM50 °FBroken clouds.18 mph88%30.12 "HgN/A
12:55 PM50 °FPartly sunny.20 mph88%30.15 "HgN/A
12:25 PM50 °FMore clouds than sun.18 mph88%30.15 "HgN/A
11:55 AM50 °FMostly cloudy.17 mph88%30.15 "HgN/A
11:25 AM50 °FBroken clouds.15 mph88%30.15 "HgN/A
Weather by CustomWeather, © 2016

See weather overviewHow to use our weather pages